| time (UTC) | temp F | wind direction | speed knots | gust knots | rain 1hr in | rain 24hr in | rain mn in | humidity % | barometer mb |
| 20260506213209 | 46 | 198 | 1.7 | 0.0 | 0.00 | 0.00 | 0.32 | 93 | 1015.6 |
| 20260506210210 | 47 | 267 | 0.9 | 0.0 | 0.00 | 0.00 | 0.32 | 93 | 1015.5 |
| 20260506203210 | 47 | 267 | 1.7 | 0.0 | 0.00 | 0.00 | 0.32 | 93 | 1015.4 |
| 20260506200210 | 48 | 184 | 5.2 | 0.0 | 0.00 | 0.00 | 0.32 | 93 | 1015.3 |
| 20260506193215 | 48 | 173 | 5.2 | 0.0 | 0.00 | 0.00 | 0.32 | 93 | 1014.9 |
| 20260506190211 | 49 | 189 | 2.6 | 0.0 | 0.00 | 0.00 | 0.32 | 92 | 1014.4 |
| 20260506183209 | 49 | 253 | 6.1 | 0.0 | 0.00 | 0.00 | 0.32 | 93 | 1014.0 |
| 20260506180216 | 50 | 256 | 3.5 | 0.0 | 0.00 | 0.00 | 0.32 | 93 | 1013.9 |
| 20260506173210 | 50 | 198 | 6.1 | 0.0 | 0.00 | 0.00 | 0.32 | 93 | 1013.3 |
| 20260506170215 | 50 | 279 | 4.3 | 0.0 | 0.00 | 0.00 | 0.31 | 93 | 1013.0 |
| 20260506163210 | 50 | 181 | 4.3 | 0.0 | 0.00 | 0.00 | 0.31 | 92 | 1013.1 |
| 20260506160210 | 50 | 227 | 8.7 | 0.0 | 0.00 | 0.00 | 0.27 | 92 | 1013.0 |
| 20260506153210 | 51 | 229 | 14.8 | 0.0 | 0.00 | 0.00 | 0.24 | 91 | 1012.8 |
| 20260506150210 | 54 | 171 | 13.0 | 0.0 | 0.00 | 0.00 | 0.07 | 87 | 1012.0 |
| 20260506143210 | 60 | 224 | 7.8 | 0.0 | 0.00 | 0.00 | 0.00 | 73 | 1010.8 |
| 20260506140210 | 61 | 261 | 5.2 | 0.0 | 0.00 | 0.00 | 0.00 | 65 | 1010.6 |
| 20260506133211 | 62 | 233 | 5.2 | 0.0 | 0.00 | 0.00 | 0.00 | 63 | 1010.6 |
| 20260506130211 | 62 | 270 | 3.5 | 0.0 | 0.00 | 0.00 | 0.00 | 63 | 1010.7 |
| 20260506123210 | 63 | 257 | 5.2 | 0.0 | 0.00 | 0.00 | 0.00 | 60 | 1010.7 |
| 20260506120210 | 61 | 130 | 4.3 | 0.0 | 0.00 | 0.00 | 0.00 | 64 | 1010.6 |
| 20260506113217 | 61 | 130 | 4.3 | 0.0 | 0.00 | 0.00 | 0.00 | 64 | 1010.7 |
| 20260506110210 | 59 | 61 | 2.6 | 0.0 | 0.00 | 0.00 | 0.00 | 71 | 1010.9 |
| 20260506100213 | 58 | 79 | 1.7 | 0.0 | 0.00 | 0.00 | 0.00 | 75 | 1011.5 |
| 20260506093211 | 58 | 131 | 3.5 | 0.0 | 0.00 | 0.00 | 0.00 | 80 | 1011.7 |
| 20260506090211 | 56 | 202 | 1.7 | 0.0 | 0.00 | 0.00 | 0.00 | 85 | 1011.5 |
| 20260506083211 | 54 | 271 | 1.7 | 0.0 | 0.00 | 0.00 | 0.00 | 89 | 1011.6 |
| 20260506080212 | 52 | 269 | 2.6 | 0.0 | 0.00 | 0.00 | 0.00 | 92 | 1011.5 |
| 20260506073211 | 51 | 177 | 3.5 | 0.0 | 0.00 | 0.00 | 0.00 | 93 | 1011.9 |
| 20260506070212 | 51 | 177 | 3.5 | 0.0 | 0.00 | 0.00 | 0.00 | 93 | 1012.0 |
| 20260506060210 | 50 | 137 | 0.9 | 0.0 | 0.00 | 0.00 | 0.00 | 95 | 1011.7 |
| 20260506050211 | 47 | 236 | 0.0 | 0.0 | 0.00 | 0.00 | 0.00 | 95 | 1012.0 |
| 20260506043211 | 47 | 236 | 0.0 | 0.0 | 0.00 | 0.00 | 0.00 | 94 | 1012.2 |
| 20260506040211 | 47 | 236 | 0.0 | 0.0 | 0.00 | 0.00 | 0.00 | 94 | 1012.5 |
| 20260506033211 | 47 | 236 | 0.0 | 0.0 | 0.00 | 0.00 | 0.00 | 94 | 1012.6 |
| 20260506030212 | 47 | 236 | 0.0 | 0.0 | 0.00 | 0.00 | 0.00 | 94 | 1013.0 |
| 20260506023211 | 48 | 236 | 0.0 | 0.0 | 0.00 | 0.00 | 0.00 | 94 | 1013.1 |
| 20260506020212 | 49 | 236 | 1.7 | 0.0 | 0.00 | 0.00 | 0.00 | 93 | 1013.1 |
| 20260506013211 | 49 | 271 | 2.6 | 0.0 | 0.00 | 0.00 | 0.00 | 94 | 1013.3 |
| 20260506010213 | 49 | 255 | 1.7 | 0.0 | 0.00 | 0.00 | 0.00 | 93 | 1013.7 |
| 20260506003209 | 49 | 297 | 0.0 | 0.0 | 0.00 | 0.00 | 0.00 | 93 | 1013.5 |
| 20260506000211 | 50 | 229 | 1.7 | 0.0 | 0.00 | 0.00 | 0.00 | 92 | 1013.8 |
| 20260505233209 | 50 | 237 | 1.7 | 0.0 | 0.00 | 0.00 | 0.00 | 92 | 1013.9 |
| 20260505230209 | 50 | 254 | 3.5 | 0.0 | 0.00 | 0.00 | 0.00 | 92 | 1013.9 |
| 20260505223210 | 50 | 232 | 0.9 | 0.0 | 0.00 | 0.00 | 0.00 | 90 | 1014.1 |
| 20260505220209 | 51 | 232 | 0.9 | 0.0 | 0.00 | 0.00 | 0.00 | 89 | 1014.0 |